Regional & State Weather Roundups


674 
ASUS44 KLZK 180805
RWRLZK
WEATHER ROUNDUP FOR ARKANSAS
NATIONAL WEATHER SERVICE LITTLE ROCK AR
200 AM CST MON DEC 18 2017
NOTE: "FAIR" INDICATES FEW OR NO CLOUDS BELOW 12,000 FEET WITH NO
SIGNIFICANT WEATHER AND/OR OBSTRUCTIONS TO VISIBILITY.
ARZ001-003-010-029-180900-
NORTHWEST ARKANSAS
  
CITY           SKY/WX    TMP DP  RH WIND       PRES   REMARKS
FAYETTEVILLE   CLOUDY    45  43  93 SW7       30.11S                  
FORT SMITH     CLOUDY    48  46  93 SW3       30.14R                  
HARRISON       CLOUDY    47  44  90 W3        30.08S                  
BENTONVILLE    CLOUDY    44  42  93 SW8       30.12S                  
ROGERS         CLOUDY    44  42  93 W8        30.10S                  
SILOAM SPGS    CLOUDY    44  43  96 SW8       30.11S                  
HIGHFILL       CLOUDY    44  44 100 W6        30.10S                  
$$
ARZ004-005-016-180900-
NORTH CENTRAL ARKANSAS
  
CITY           SKY/WX    TMP DP  RH WIND       PRES   REMARKS
BATESVILLE     CLOUDY    44  44 100 S5        30.14R FOG              
FLIPPIN        CLOUDY    47  46  97 CALM      30.10R                  
MTN HOME       CLOUDY    46  46 100 S3        30.08R                  
$$
ARZ040-041-180900-
WEST CENTRAL ARKANSAS
  
CITY           SKY/WX    TMP DP  RH WIND       PRES   REMARKS
MENA           CLOUDY    46  46 100 CALM      30.14S                  
MOUNT IDA      CLOUDY    47  46  97 CALM      30.12R                  
$$
ARZ009-017-025-026-028-180900-
NORTHEAST ARKANSAS
  
CITY           SKY/WX    TMP DP  RH WIND       PRES   REMARKS
CORNING        CLOUDY    46  46 100 S9        30.11F FOG              
JONESBORO      CLOUDY    45  45 100 SW6       30.13S FOG              
NEWPORT        CLOUDY    44  44 100 SW9       30.15R FOG              
WALNUT RIDGE   CLOUDY    45  44  97 SW12      30.12S FOG              
BLYTHEVILLE    FOG       45  45 100 SW3       30.14S VSB 1            
$$
ARZ022-023-033-042-044-180900-
CENTRAL ARKANSAS
  
CITY           SKY/WX    TMP DP  RH WIND       PRES   REMARKS
LITTLE ROCK    CLOUDY    44  44 100 SW5       30.17R FOG              
N LITTLE ROCK    N/A     44  43  97 W5        30.19R                  
JACKSONVILLE   CLOUDY    45  45  99 S5        30.15R                  
SEARCY         CLOUDY    45  45 100 S6        30.16R FOG              
HOT SPRINGS    CLOUDY    46  46 100 W3        30.15S                  
RUSSELLVILLE   CLOUDY    48  47  96 S6        30.13R                  
CLINTON        CLOUDY    46  45  93 CALM      30.13R FOG              
$$
ARZ036-180900-
EAST ARKANSAS
  
CITY           SKY/WX    TMP DP  RH WIND       PRES   REMARKS
WEST MEMPHIS   CLOUDY    45  45 100 SW6       30.15S FOG              
$$
ARZ050-053-066-070-073-180900-
SOUTHWEST ARKANSAS
  
CITY           SKY/WX    TMP DP  RH WIND       PRES   REMARKS
ARKADELPHIA    CLOUDY    45  45 100 CALM      30.17F FOG              
CAMDEN         CLOUDY    45  43  93 CALM      30.18R FOG              
TEXARKANA      CLOUDY    46  46 100 CALM      30.16S FOG              
EL DORADO      CLOUDY    45  45 100 SW3       30.17S FOG              
DE QUEEN       CLOUDY    47  47 100 CALM      30.15R FOG              
$$
ARZ056-057-069-180900-
SOUTHEAST ARKANSAS
  
CITY           SKY/WX    TMP DP  RH WIND       PRES   REMARKS
PINE BLUFF     CLOUDY    43  43 100 SW5       30.17R FOG              
STUTTGART      CLOUDY    45  43  93 SW6       30.17R FOG              
MONTICELLO     CLOUDY    44  43  96 W5        30.18R FOG              
$$